TimeBST,TemperatureF,Dew PointF,Humidity,Sea Level PressureIn,VisibilityMPH,Wind Direction,Wind SpeedMPH,Gust SpeedMPH,PrecipitationIn,Events,Conditions,WindDirDegrees,DateUTC
7:50 AM,39.2,33.8,81,29.68,1.6,Calm,Calm,-,N/A,,Mostly Cloudy,0,2013-04-10 06:50:00
8:20 AM,39.2,33.8,81,29.68,1.6,East,2.3,-,N/A,,Mostly Cloudy,100,2013-04-10 07:20:00
8:50 AM,41.0,35.6,81,29.68,1.6,Calm,Calm,-,N/A,,Mostly Cloudy,0,2013-04-10 07:50:00
9:20 AM,41.0,35.6,81,29.68,1.9,Calm,Calm,-,N/A,,Mostly Cloudy,0,2013-04-10 08:20:00
9:50 AM,41.0,35.6,81,29.68,1.9,Calm,Calm,-,N/A,,Mostly Cloudy,0,2013-04-10 08:50:00
10:20 AM,42.8,35.6,76,29.68,1.6,Calm,Calm,-,N/A,,Mostly Cloudy,0,2013-04-10 09:20:00
10:50 AM,42.8,35.6,76,29.68,1.6,Calm,Calm,-,N/A,,Mostly Cloudy,0,2013-04-10 09:50:00
11:20 AM,44.6,37.4,76,29.68,2.2,Calm,Calm,-,N/A,,Haze,0,2013-04-10 10:20:00
11:50 AM,46.4,37.4,71,29.68,2.2,SSE,2.3,-,N/A,,Haze,160,2013-04-10 10:50:00
12:20 PM,50.0,37.4,62,29.65,2.8,South,2.3,-,N/A,,Haze,170,2013-04-10 11:20:00
12:50 PM,50.0,37.4,62,29.65,2.8,South,2.3,-,N/A,,Haze,180,2013-04-10 11:50:00
1:20 PM,53.6,37.4,54,29.65,3.1,SSE,4.6,-,N/A,,Scattered Clouds,150,2013-04-10 12:20:00
1:50 PM,53.6,35.6,51,29.62,3.7,SSE,6.9,-,N/A,,Scattered Clouds,150,2013-04-10 12:50:00
2:20 PM,55.4,33.8,44,29.62,5.0,SSE,9.2,-,N/A,,Scattered Clouds,160,2013-04-10 13:20:00
2:50 PM,53.6,32.0,44,29.62,6.2,SSE,11.5,-,N/A,,Scattered Clouds,150,2013-04-10 13:50:00
3:20 PM,53.6,33.8,47,29.59,6.2,SSE,12.7,-,N/A,,Scattered Clouds,160,2013-04-10 14:20:00
3:50 PM,53.6,33.8,47,29.59,5.0,SSE,11.5,-,N/A,,Partly Cloudy,150,2013-04-10 14:50:00
4:20 PM,53.6,33.8,47,29.59,5.0,SSE,11.5,-,N/A,,Partly Cloudy,160,2013-04-10 15:20:00
4:50 PM,51.8,33.8,50,29.56,5.0,SE,10.4,-,N/A,,Partly Cloudy,130,2013-04-10 15:50:00
5:20 PM,51.8,35.6,54,29.56,5.0,SE,9.2,-,N/A,,Partly Cloudy,130,2013-04-10 16:20:00
5:50 PM,51.8,35.6,54,29.56,6.2,ESE,9.2,-,N/A,,Partly Cloudy,120,2013-04-10 16:50:00
6:20 PM,50.0,33.8,54,29.53,6.2,ESE,11.5,-,N/A,,Partly Cloudy,110,2013-04-10 17:20:00
6:50 PM,50.0,35.6,58,29.53,6.2,ESE,6.9,-,N/A,,Partly Cloudy,110,2013-04-10 17:50:00
7:20 PM,50.0,35.6,58,29.53,6.2,ESE,9.2,-,N/A,,Partly Cloudy,110,2013-04-10 18:20:00